Location: Unspecified
(0.0000°N, 0.0000°E)
Time: 00:12:10
(UTC+00:00)

Vanguard 1 - All Passes

Search period start: 19 January 2017 00:00
Search period end: 29 January 2017 00:00
Orbit: 652 x 3832 km, 34.2° (Epoch: 18 January)

Date Brightness Start Highest point End Pass type
(mag) Time Alt. Az. Time Alt. Az. Time Alt. Az.
19 Jan - 01:58:46 10° W 02:12:38 24° NW 02:22:06 10° NNE night (unlit)
19 Jan - 09:24:42 10° N 09:27:52 19° NE 09:31:23 10° E daylight
19 Jan - 11:43:14 10° WNW 11:47:59 43° SSW 11:55:18 10° SE daylight
19 Jan - 14:07:49 10° SW 14:11:51 14° S 14:16:55 10° SSE daylight
19 Jan - 16:34:59 10° SSW 16:41:02 13° S 16:48:16 10° SSE daylight
19 Jan - 18:56:28 10° SSW 19:12:51 29° SSE 19:31:31 10° E visible
19 Jan - 21:19:21 10° SW 21:42:27 66° SE 22:02:08 10° ENE visible
19 Jan - 23:46:45 10° WSW 00:09:22 58° NW 00:24:27 10° NE visible
20 Jan - 02:24:24 10° WNW 02:34:28 17° NW 02:41:57 10° N night (unlit)
20 Jan - 09:44:50 10° NNW 09:48:54 36° NE 09:53:45 10° ESE daylight
20 Jan - 12:05:02 10° W 12:09:31 27° SSW 12:16:06 10° SSE daylight
20 Jan - 14:32:38 10° SSW 14:34:28 10° S 14:36:28 10° S daylight
20 Jan - 16:56:37 10° SSW 17:04:32 15° SSE 17:14:11 10° SE daylight
20 Jan - 19:17:28 10° SSW 19:35:33 36° SSE 19:55:37 10° E visible
20 Jan - 21:40:46 10° SW 22:04:25 80° SE 22:23:53 10° ENE visible
21 Jan - 00:09:46 10° WSW 00:30:56 46° NW 00:45:11 10° NNE visible
21 Jan - 02:51:35 10° NW 02:56:37 12° NNW 03:00:54 10° N night (unlit)
21 Jan - 10:05:31 10° NW 10:09:54 71° NE 10:15:27 10° ESE daylight
21 Jan - 12:27:25 10° WSW 12:31:18 18° SSW 12:36:30 10° SSE daylight
21 Jan - 17:17:42 10° SSW 17:27:51 18° SSE 17:40:33 10° ESE daylight
21 Jan - 19:38:27 10° SSW 19:57:57 45° SE 20:19:01 10° E visible
21 Jan - 22:02:24 10° SW 22:26:14 86° NW 22:45:18 10° NE visible
22 Jan - 00:33:26 10° W 00:52:35 35° NW 01:05:45 10° NNE visible
22 Jan - 08:09:19 10° N 08:10:45 11° NNE 08:12:10 10° NE daylight
22 Jan - 10:26:36 10° WNW 10:30:58 60° SW 10:36:43 10° SE daylight
22 Jan - 12:50:55 10° SW 12:53:19 12° SSW 12:56:06 10° S daylight
22 Jan - 17:38:32 10° SSW 17:50:53 22° SSE 18:06:33 10° ESE daylight
22 Jan - 19:59:28 10° SW 20:20:07 55° SE 20:41:46 10° ENE visible
22 Jan - 22:24:22 10° WSW 22:47:59 71° NW 23:06:30 10° NE visible
23 Jan - 00:57:55 10° W 01:14:28 27° NW 01:26:11 10° NNE visible
23 Jan - 08:28:30 10° NNW 08:32:05 21° NNE 08:35:31 10° E daylight
23 Jan - 10:48:09 10° W 10:52:14 32° SSW 10:57:33 10° SSE daylight
23 Jan - 17:59:17 10° SSW 18:13:35 28° SSE 18:31:47 10° E visible
23 Jan - 20:20:36 10° SW 20:42:06 68° SE 21:04:02 10° ENE visible
23 Jan - 22:46:43 10° WSW 23:09:43 58° NW 23:27:29 10° NE visible
24 Jan - 01:23:20 10° WNW 01:36:37 20° NNW 01:46:28 10° N night (unlit)
24 Jan - 08:48:52 10° NW 08:53:15 40° NE 08:57:33 10° ESE daylight
24 Jan - 11:10:18 10° WSW 11:13:42 19° SSW 11:17:56 10° SSE daylight
24 Jan - 16:02:24 10° S 16:06:49 12° SSE 16:11:55 10° SE daylight
24 Jan - 18:20:01 10° SSW 18:35:57 36° SE 18:56:09 10° E visible
24 Jan - 20:41:54 10° SW 21:03:59 81° SE 21:25:53 10° NE visible
24 Jan - 23:09:35 10° WSW 23:31:32 47° NW 23:48:20 10° NNE visible
25 Jan - 01:49:46 10° WNW 01:59:07 15° NNW 02:06:30 10° N night (unlit)
25 Jan - 09:09:44 10° NW 09:14:19 83° NE 09:19:01 10° SE daylight
25 Jan - 11:33:41 10° SW 11:35:23 11° SSW 11:37:16 10° S daylight
25 Jan - 16:22:12 10° S 16:29:47 15° SSE 16:39:19 10° ESE daylight
25 Jan - 18:40:48 10° SSW 18:58:03 45° SE 19:19:45 10° ENE visible
25 Jan - 21:03:25 10° SW 21:25:49 84° NW 21:47:26 10° NE visible
25 Jan - 23:33:06 10° W 23:53:30 37° NW 00:09:05 10° NNE visible
26 Jan - 02:17:25 10° NW 02:21:56 11° NNW 02:25:53 10° N night (unlit)
26 Jan - 07:11:34 10° N 07:14:54 16° NNE 07:17:46 10° ENE daylight
26 Jan - 09:31:02 10° WNW 09:35:23 48° SW 09:40:02 10° SE daylight
26 Jan - 16:42:24 10° SSW 16:52:27 20° SSE 17:05:48 10° ESE daylight
26 Jan - 19:01:40 10° SW 19:19:58 56° SE 19:42:42 10° ENE visible
26 Jan - 21:25:14 10° WSW 21:47:41 70° NW 22:08:44 10° NE visible
26 Jan - 23:57:23 10° W 00:15:43 29° NNW 00:29:45 10° NNE visible
27 Jan - 07:31:38 10° NNW 07:36:23 27° NNE 07:40:12 10° E daylight
27 Jan - 09:52:51 10° W 09:56:34 25° SSW 10:00:35 10° SSE daylight
27 Jan - 17:02:46 10° SSW 17:14:47 26° SE 17:31:20 10° E daylight
27 Jan - 19:22:41 10° SW 19:41:46 68° SE 20:05:06 10° ENE visible
27 Jan - 21:47:27 10° WSW 22:09:36 58° NW 22:29:51 10° NE visible
28 Jan - 00:22:32 10° WNW 00:38:15 23° NNW 00:50:23 10° NNE visible
28 Jan - 07:52:19 10° NW 07:57:40 49° NE 08:01:56 10° ESE daylight
28 Jan - 10:15:33 10° WSW 10:17:53 14° SSW 10:20:24 10° S daylight
28 Jan - 17:23:14 10° SSW 17:36:48 34° SE 17:55:57 10° E daylight
28 Jan - 19:43:51 10° SW 20:03:33 83° SE 20:27:06 10° NE visible
28 Jan - 22:10:10 10° WSW 22:31:40 47° NW 22:50:50 10° NE visible
